Temperature
21 19 19 20 20 22 22 22 21 22 23 22 21 21 20 19 19 19 19 18 18 19 19 18 18 18 18 18 17 18 18 17 17 17 17 17 17 17 17 17 17 16 16 16
20 20 21 21 21 22 22 21 21 22 23 23 21 21 20 19 19 19 18 18 18 18 18 18 18 18 18 18 17 17 17 17 17 17 17 17 17 17 17 16 16 16 16 16
20 21 22 22 22 22 22 21 21 21 22 21 21 21 20 19 19 19 19 18 18 18 18 18 18 17 17 17 17 17 17 17 17 17 17 17 16 16 16 16 16 16 16 16
20 21 23 23 22 22 21 22 22 22 21 19 21 19 20 19 18 18 18 18 18 18 18 18 18 17 17 17 17 17 17 17 17 17 17 17 16 16 16 16 16 16 16 16
21 22 22 22 23 23 22 22 22 21 20 19 19 19 19 19 18 18 18 18 18 18 18 18 18 18 18 17 17 17 17 17 17 17 17 17 17 17 16 16 16 16 16 15
21 23 23 23 24 24 23 21 20 17 17 19 20 19 19 18 18 18 18 18 18 18 17 17 18 17 17 17 17 17 17 17 17 16 16 17 17 16 16 16 16 16 16 15
22 22 23 23 23 23 22 20 19 19 18 18 19 19 18 19 19 19 18 18 18 18 18 17 17 17 17 17 17 17 17 17 17 16 16 16 16 16 16 16 16 16 16 15
20 21 22 22 22 22 21 20 19 19 19 18 18 18 19 20 19 19 19 19 18 18 18 18 18 18 18 17 17 17 17 17 17 17 16 16 16 16 16 16 16 16 16 16
19 20 22 23 23 22 21 19 19 18 18 18 18 18 19 19 19 18 18 18 18 18 18 18 18 18 18 18 18 17 17 17 17 17 17 17 16 16 16 16 16 16 16 15
20 20 22 22 22 22 21 18 16 17 18 19 19 19 19 20 19 18 17 17 18 18 18 18 19 18 18 18 18 18 17 17 17 17 17 17 17 16 16 16 16 16 16 15
20 20 20 21 21 21 20 19 17 15 17 18 18 19 19 19 19 18 17 18 18 18 19 19 19 19 18 18 18 18 17 17 17 17 17 17 17 16 16 16 16 16 16 15
18 17 18 19 20 20 20 19 17 18 17 16 17 18 20 19 18 17 18 18 19 19 19 19 19 19 18 18 18 18 17 17 17 17 17 17 17 16 16 16 16 16 15 15
18 17 17 18 19 19 19 19 17 16 15 15 17 19 20 18 18 18 18 19 19 19 19 19 19 19 19 18 18 18 18 18 17 17 17 17 16 16 16 16 16 16 15 15
17 16 17 18 18 18 19 19 18 16 16 16 17 18 19 19 18 18 18 19 19 19 19 19 19 19 19 19 19 18 18 18 17 17 17 17 17 17 17 16 16 16 15 15
17 16 17 17 18 18 18 19 18 18 17 17 18 18 19 18 18 18 19 19 19 19 19 19 19 19 19 19 19 19 18 18 18 17 17 17 17 17 17 16 16 16 15 15
15 16 17 17 18 18 18 18 18 18 18 18 18 18 18 18 18 18 18 18 18 19 19 19 19 20 20 20 19 19 19 18 18 18 18 17 17 17 17 16 16 16 16 15
14 15 15 15 17 18 17 18 18 18 18 18 18 18 17 17 17 17 18 18 18 19 20 20 20 20 20 20 20 20 19 19 18 18 18 18 17 17 17 17 16 16 16 15
13 13 13 14 16 16 17 17 17 17 17 17 17 17 16 16 17 18 18 18 18 19 20 20 20 21 21 20 20 20 19 19 18 18 18 18 17 17 17 17 16 16 16 15
12 13 13 13 15 16 17 17 16 16 16 16 16 16 16 16 17 18 18 18 18 19 20 21 21 21 21 21 20 20 19 19 19 18 18 18 18 17 17 17 17 16 16 16
12 12 12 13 15 15 16 16 16 16 16 16 15 15 15 15 16 16 18 18 19 20 20 21 21 21 21 21 20 19 19 19 19 19 19 18 18 18 17 17 17 17 16 16
13 13 13 13 14 15 15 15 16 16 16 15 15 14 14 14 15 16 17 17 18 19 20 20 20 20 20 20 20 20 20 20 20 19 19 18 18 18 17 17 17 17 16 16
13 13 13 13 14 15 15 15 15 15 15 15 14 15 14 15 15 15 16 17 18 18 19 20 20 20 20 20 20 20 20 20 19 19 18 18 18 18 17 17 16 16 16 15
12 12 12 13 13 14 14 14 15 15 14 14 14 15 15 14 14 15 15 16 17 17 18 19 19 19 19 19 19 19 20 19 19 18 18 18 17 17 17 17 16 16 16 15
13 12 12 12 13 13 14 14 14 14 14 14 14 14 14 14 14 14 15 15 16 17 17 17 18 18 18 18 18 19 19 18 18 18 17 17 17 16 16 16 16 15 15 15
12 12 12 12 13 13 14 14 14 14 14 14 14 14 14 14 14 14 14 14 15 15 16 16 16 17 17 17 17 17 17 17 17 17 17 17 16 16 15 15 15 15 15 15
11 11 12 12 12 12 13 13 13 13 13 13 13 13 13 13 13 13 13 13 14 14 14 15 15 15 15 16 16 16 16 16 16 16 16 16 15 15 15 15 14 14 14 14
Wind_Speed
4 4 5 8 8 6 4 4 8 9 6 3 7 7 5 6 7 8 8 8 9 10 8 9 10 9 10 10 11 11 10 10 9 7 7 6 5 4 4 4 8 10 10 10
3 5 10 6 5 5 5 6 8 8 3 1 4 5 4 5 7 8 9 10 9 8 8 9 9 9 11 12 11 10 10 10 9 7 6 4 5 4 3 3 6 9 11 10
9 7 4 5 4 4 6 6 7 7 4 3 2 6 2 2 3 3 5 7 8 10 12 11 10 9 9 10 11 11 10 9 9 8 6 6 5 4 3 3 4 5 9 10
7 7 4 5 6 6 6 7 7 5 1 4 2 4 7 3 4 5 7 8 9 9 10 10 11 10 11 10 9 9 9 9 8 10 10 11 7 6 5 4 4 4 7 9
8 5 7 7 8 8 7 2 2 1 3 1 1 2 8 1 5 9 10 10 11 11 12 11 11 11 10 10 10 9 9 9 8 9 11 10 7 5 4 5 6 5 4 6
7 4 5 7 5 5 4 5 6 5 4 1 3 3 7 5 8 7 10 11 11 11 11 10 9 8 8 9 9 9 9 9 9 10 9 10 10 9 9 7 7 5 4 3
4 4 4 3 1 1 4 5 4 5 4 6 2 3 9 8 7 8 10 12 12 12 12 12 12 11 10 10 10 10 10 9 10 10 9 9 10 11 11 9 8 7 5 4
4 6 4 3 6 5 4 8 7 5 5 6 2 6 8 5 4 4 6 9 11 12 12 13 13 13 12 12 11 11 11 10 10 10 9 8 9 7 7 8 8 8 6 5
7 6 4 2 3 7 5 4 6 7 3 2 6 7 9 2 2 2 4 7 12 13 13 13 13 13 12 13 12 13 12 10 10 10 9 8 9 8 8 8 7 6 6 6
8 4 4 3 2 2 4 7 6 6 5 4 5 5 5 7 6 5 5 8 10 11 12 12 12 12 12 11 10 11 11 11 10 10 10 9 9 9 8 8 8 8 7 7
5 4 3 3 2 3 3 4 5 4 4 6 4 7 7 8 7 7 8 8 10 12 13 13 12 12 11 10 11 11 11 10 10 10 9 9 9 8 9 8 9 8 7 8
4 5 1 4 4 1 3 5 7 5 4 5 4 8 6 6 5 6 6 7 8 10 11 11 12 12 12 12 11 12 11 11 11 10 9 9 9 9 9 9 9 8 8 8
5 6 3 5 5 4 2 2 4 5 4 5 5 8 3 3 2 3 5 6 7 8 8 9 10 12 13 13 13 12 12 12 10 10 10 9 9 9 9 9 9 9 9 8
5 5 6 7 7 3 2 3 4 5 4 5 8 9 8 6 5 5 4 5 6 7 9 11 12 12 13 14 13 13 12 12 11 11 11 11 10 10 10 9 9 9 9 9
4 3 3 4 5 3 5 6 6 7 8 8 8 8 10 7 6 5 5 5 6 7 9 12 13 13 13 13 13 13 12 12 12 12 12 11 10 9 9 9 9 9 9 10
3 3 2 2 4 4 5 7 7 8 6 8 7 9 6 5 3 3 4 5 7 9 11 12 13 14 14 15 14 14 13 13 13 13 13 11 10 10 10 10 9 9 9 8
2 5 3 3 3 2 5 7 7 5 5 6 8 7 4 4 5 4 4 4 7 8 9 11 13 15 15 16 15 15 15 13 13 13 12 12 12 12 11 11 10 10 10 8
6 5 3 2 0 5 7 2 2 4 5 5 4 4 4 5 6 4 3 3 4 5 7 9 10 12 13 13 13 13 13 14 14 13 13 12 12 12 11 11 11 10 8 9
4 6 4 3 3 6 4 1 0 2 4 2 3 5 6 6 4 3 2 2 3 4 5 7 9 10 11 12 13 13 13 14 14 14 14 13 13 13 12 12 11 10 9 9
4 4 4 3 3 5 4 2 3 1 4 2 2 4 5 4 2 4 5 6 6 4 2 3 5 6 9 11 13 14 14 14 15 15 14 13 13 13 13 13 11 8 8 9
2 2 2 3 4 5 3 4 2 2 5 3 3 4 4 2 4 5 6 7 5 4 2 1 4 6 7 9 12 14 14 15 14 12 11 12 12 13 12 10 8 8 8 8
3 3 3 3 3 5 3 2 2 5 4 4 4 4 3 4 4 5 5 6 6 6 5 2 3 4 4 8 11 11 11 10 9 10 10 11 11 11 10 10 9 8 9 8
3 4 4 5 5 4 3 3 5 4 5 5 4 3 2 3 4 4 4 5 6 6 5 4 4 5 4 6 9 9 7 7 9 9 9 9 9 8 9 10 10 8 7 7
2 1 2 2 5 4 4 4 4 3 3 3 2 2 1 1 2 4 4 5 6 7 6 6 6 7 6 5 6 6 6 8 8 8 8 7 8 7 7 6 7 7 7 7
3 1 1 3 4 5 5 5 4 4 4 4 4 4 3 3 4 5 5 7 7 7 7 7 7 7 6 6 6 5 6 8 8 7 6 6 6 7 6 5 5 6 5 6
2 2 2 3 3 1 3 5 6 6 5 4 5 6 7 6 6 7 8 8 8 8 8 9 9 9 8 8 8 6 5 7 8 6 5 5 5 5 5 5 4 4 4 6
Wind_Direction
134 113 201 210 196 198 208 247 271 273 272 261 257 260 242 193 189 191 192 186 185 191 183 174 174 170 167 170 171 172 167 168 165 165 166 167 169 164 159 163 160 157 155 157
81 237 228 202 190 195 220 263 275 291 317 218 271 277 238 195 202 197 194 193 189 178 167 169 171 174 175 174 174 171 169 171 171 170 165 156 146 146 152 151 151 156 155 157
190 227 197 185 210 220 245 227 250 265 324 9 345 318 277 231 205 196 195 190 186 182 180 178 176 178 172 175 176 176 172 170 167 158 139 130 111 101 121 143 149 154 156 157
225 244 207 220 233 201 259 237 227 249 285 294 42 294 285 237 230 217 204 191 188 184 179 179 177 177 175 181 178 169 169 168 165 159 160 158 161 162 175 163 149 141 149 150
227 211 192 216 230 191 222 248 192 225 170 307 355 205 285 258 237 233 215 201 191 185 179 179 180 176 174 172 168 164 162 163 163 161 162 161 156 149 139 135 135 134 137 148
235 230 202 211 225 189 180 69 56 50 73 295 242 188 275 236 225 231 212 202 193 184 179 178 174 166 167 165 163 163 162 164 163 162 163 165 159 152 147 149 152 149 142 142
284 270 247 193 178 35 108 91 24 356 2 256 252 214 250 252 229 219 207 198 188 179 176 175 174 175 175 174 171 167 167 166 165 166 167 169 166 163 164 164 164 159 155 158
205 277 249 193 184 187 175 144 161 207 232 273 289 239 256 268 248 231 206 189 180 179 179 180 181 180 180 179 175 171 171 168 168 170 170 166 163 165 166 166 166 168 168 165
182 243 288 227 186 150 146 178 167 146 174 250 276 281 300 268 275 222 187 177 186 186 184 183 180 180 181 180 178 176 173 171 172 172 165 163 164 164 165 163 160 163 160 158
160 216 288 309 84 55 144 146 109 134 160 240 280 274 260 274 258 236 206 196 191 186 183 181 180 181 181 179 174 170 171 173 169 167 170 173 171 170 165 161 164 166 165 158
141 168 308 18 143 194 110 108 114 123 158 170 243 269 230 238 239 224 218 204 192 188 187 185 182 180 176 170 170 170 170 166 168 170 170 166 170 169 166 168 172 171 168 164
123 126 225 273 279 245 164 165 151 159 213 187 192 264 266 247 246 217 209 200 193 191 189 184 177 174 173 174 175 176 176 176 176 172 169 169 168 166 169 174 175 172 172 173
126 112 68 347 345 1 68 145 151 137 134 169 186 261 295 341 304 232 206 194 186 184 183 178 174 176 178 180 180 181 182 183 177 170 170 169 170 173 178 179 176 173 174 174
114 118 163 195 221 224 245 228 171 144 168 210 222 250 288 300 290 273 237 211 188 184 185 184 184 185 184 182 182 184 186 182 176 173 175 178 182 183 182 178 176 177 177 178
99 147 196 224 236 221 228 243 217 206 203 209 238 239 263 269 266 258 228 206 190 190 191 191 191 189 186 183 183 185 187 182 178 177 183 187 184 180 177 177 179 178 182 187
84 147 159 262 249 242 254 255 238 232 227 232 253 266 265 281 285 276 241 206 200 200 200 197 194 189 190 190 189 186 186 184 179 183 188 183 177 178 182 182 180 180 186 185
124 139 144 243 277 311 260 242 229 220 220 208 231 250 298 313 315 310 284 232 213 212 206 200 198 196 194 193 189 189 187 180 181 187 187 183 181 184 187 186 181 187 189 186
143 136 148 196 50 229 245 266 231 217 250 232 243 283 284 273 288 291 284 262 248 226 213 208 205 203 196 190 187 182 177 179 184 188 189 186 185 188 185 183 187 191 188 192
144 143 142 156 211 265 286 295 335 229 266 254 266 297 303 305 316 324 352 337 273 255 234 216 205 202 189 184 178 173 178 182 187 192 192 190 186 185 185 189 193 191 190 197
78 106 132 155 192 233 252 304 324 125 271 260 273 297 312 337 325 300 343 331 317 308 262 227 192 174 177 178 169 173 181 185 193 195 192 186 184 186 190 193 191 186 189 200
53 73 158 186 220 258 282 310 345 187 255 309 292 282 291 260 236 277 316 328 328 330 321 187 150 162 175 167 166 177 184 193 195 186 179 179 183 187 188 186 183 180 187 193
182 173 189 165 207 255 319 348 217 244 288 300 291 276 265 267 281 302 327 342 351 3 9 46 124 136 143 153 163 174 187 188 171 167 175 181 183 184 184 177 179 180 184 193
198 197 194 194 219 258 287 264 281 273 273 283 286 288 262 276 295 323 350 358 4 14 26 43 88 96 103 133 150 163 172 154 152 158 169 174 173 176 175 175 178 180 185 193
296 158 158 259 272 286 297 300 307 302 270 294 312 324 334 307 339 9 21 25 26 27 35 46 73 87 88 103 126 138 133 136 140 154 164 163 163 166 165 166 171 176 181 187
266 204 178 264 289 319 337 338 340 359 20 44 41 39 33 54 48 43 44 41 41 41 40 51 66 78 82 89 91 94 110 126 135 142 145 146 153 155 154 152 157 169 178 184
247 197 188 236 251 235 323 355 25 40 46 50 56 51 47 58 64 61 58 52 51 52 53 58 62 67 69 75 75 67 86 116 125 126 127 133 138 140 144 141 121 90 121 137
Height
1465 1472 1477 1474 1473 1473 1475 1478 1480 1472 1463 1465 1466 1465 1462 1460 1461 1462 1463 1465 1467 1468 1471 1474 1478 1483 1486 1490 1494 1499 1503 1507 1512 1516 1520 1523 1527 1531 1535 1538 1541 1544 1546 1548
1469 1472 1465 1464 1467 1470 1473 1478 1477 1468 1460 1463 1466 1464 1459 1459 1459 1459 1461 1463 1464 1467 1470 1472 1476 1480 1483 1487 1491 1496 1500 1505 1509 1513 1518 1522 1526 1530 1533 1537 1540 1542 1545 1547
1468 1463 1458 1462 1466 1470 1472 1475 1473 1471 1464 1463 1466 1468 1463 1459 1460 1460 1461 1462 1464 1465 1467 1470 1474 1478 1482 1485 1489 1493 1498 1503 1507 1512 1516 1520 1525 1528 1532 1535 1538 1541 1543 1546
1463 1457 1458 1461 1464 1465 1473 1462 1463 1465 1473 1479 1473 1486 1467 1461 1460 1459 1459 1460 1462 1464 1466 1469 1472 1476 1479 1483 1488 1492 1497 1501 1505 1510 1514 1518 1522 1525 1529 1533 1536 1539 1542 1545
1460 1454 1456 1460 1458 1458 1462 1457 1461 1465 1472 1479 1477 1484 1474 1462 1462 1457 1455 1456 1458 1461 1464 1467 1470 1474 1478 1482 1486 1491 1495 1500 1504 1508 1512 1517 1521 1525 1529 1532 1535 1538 1541 1544
1452 1449 1450 1451 1449 1451 1453 1460 1466 1474 1480 1489 1478 1483 1478 1464 1456 1451 1450 1452 1455 1459 1462 1466 1470 1474 1477 1481 1485 1490 1494 1498 1502 1506 1511 1516 1520 1524 1527 1530 1534 1537 1540 1542
1456 1450 1447 1446 1451 1452 1456 1472 1490 1491 1499 1494 1477 1480 1473 1450 1446 1445 1445 1448 1451 1456 1460 1464 1468 1472 1476 1480 1484 1488 1492 1496 1500 1505 1510 1514 1518 1522 1526 1529 1532 1535 1538 1541
1465 1464 1448 1445 1449 1455 1458 1467 1489 1497 1500 1491 1479 1479 1460 1444 1442 1441 1442 1445 1448 1452 1457 1461 1465 1469 1473 1478 1482 1486 1490 1494 1499 1503 1508 1512 1517 1520 1524 1528 1531 1534 1537 1540
1464 1462 1445 1442 1442 1447 1458 1465 1465 1482 1486 1490 1483 1471 1454 1442 1441 1441 1441 1443 1445 1449 1453 1457 1462 1467 1471 1475 1479 1484 1488 1493 1497 1502 1506 1510 1515 1519 1523 1526 1530 1533 1537 1539
1450 1459 1448 1443 1443 1445 1449 1458 1473 1482 1492 1493 1481 1473 1464 1446 1443 1441 1441 1441 1443 1446 1450 1455 1459 1464 1469 1473 1478 1482 1487 1491 1496 1500 1505 1509 1513 1517 1521 1525 1528 1532 1535 1538
1445 1456 1454 1449 1451 1452 1454 1460 1469 1479 1481 1490 1490 1476 1445 1442 1439 1439 1438 1439 1441 1444 1447 1452 1456 1462 1467 1472 1476 1480 1485 1490 1494 1499 1503 1507 1511 1515 1519 1523 1527 1530 1533 1536
1446 1457 1464 1456 1448 1446 1449 1455 1465 1475 1478 1481 1483 1471 1436 1436 1434 1435 1436 1437 1439 1442 1446 1450 1454 1459 1464 1469 1474 1478 1483 1487 1492 1497 1501 1505 1509 1513 1517 1521 1524 1528 1531 1534
1445 1458 1470 1467 1462 1453 1452 1453 1457 1465 1473 1480 1481 1465 1435 1434 1434 1434 1434 1435 1438 1441 1444 1448 1452 1456 1461 1465 1470 1475 1480 1485 1490 1494 1499 1503 1507 1511 1514 1518 1522 1526 1529 1532
1441 1456 1464 1470 1464 1456 1455 1453 1455 1462 1472 1474 1467 1454 1439 1436 1435 1434 1434 1435 1436 1439 1442 1445 1449 1453 1457 1462 1467 1472 1476 1482 1486 1491 1495 1499 1504 1508 1512 1516 1520 1523 1527 1530
1442 1454 1454 1454 1451 1451 1451 1450 1451 1455 1456 1461 1453 1449 1439 1435 1434 1432 1432 1433 1435 1437 1440 1442 1445 1449 1454 1458 1463 1468 1473 1478 1483 1487 1492 1496 1501 1505 1510 1513 1517 1521 1524 1527
1445 1452 1453 1454 1449 1449 1450 1446 1446 1447 1447 1448 1447 1443 1433 1432 1431 1430 1430 1430 1431 1433 1435 1439 1442 1446 1450 1454 1459 1464 1469 1474 1479 1483 1488 1493 1497 1502 1506 1510 1514 1517 1520 1523
1450 1454 1459 1462 1452 1451 1455 1445 1443 1442 1440 1442 1444 1438 1433 1432 1430 1429 1428 1427 1428 1429 1431 1434 1438 1441 1445 1450 1455 1459 1465 1470 1475 1480 1485 1489 1494 1498 1502 1506 1510 1513 1516 1519
1450 1455 1462 1464 1460 1464 1448 1437 1436 1438 1437 1435 1435 1433 1433 1432 1429 1428 1427 1426 1425 1427 1428 1431 1434 1437 1441 1446 1451 1456 1461 1466 1471 1476 1481 1485 1490 1494 1498 1502 1505 1509 1512 1515
1446 1453 1461 1465 1464 1455 1444 1437 1437 1439 1438 1434 1434 1433 1431 1430 1427 1426 1425 1424 1424 1424 1425 1427 1430 1433 1437 1442 1447 1452 1457 1462 1467 1471 1476 1480 1485 1490 1494 1497 1501 1504 1508 1510
1447 1450 1458 1462 1461 1460 1445 1436 1434 1437 1440 1433 1432 1432 1431 1430 1432 1428 1425 1423 1422 1422 1423 1424 1426 1429 1433 1437 1443 1448 1452 1457 1461 1466 1471 1476 1481 1485 1489 1492 1496 1500 1503 1506
1452 1454 1456 1458 1457 1450 1439 1436 1435 1445 1440 1432 1431 1430 1430 1430 1429 1427 1423 1422 1420 1420 1420 1421 1423 1425 1429 1433 1438 1443 1447 1451 1456 1462 1467 1471 1475 1479 1483 1488 1492 1495 1498 1502
1451 1454 1455 1457 1457 1452 1437 1436 1438 1437 1432 1430 1429 1428 1428 1427 1426 1423 1421 1420 1418 1417 1418 1419 1420 1422 1425 1429 1434 1438 1443 1448 1453 1458 1462 1466 1471 1475 1479 1482 1486 1490 1493 1496
1448 1448 1448 1449 1448 1439 1436 1436 1434 1432 1430 1429 1427 1426 1426 1425 1424 1422 1420 1418 1417 1416 1416 1417 1418 1420 1423 1426 1430 1435 1440 1445 1449 1454 1458 1462 1466 1470 1474 1477 1480 1485 1488 1490
1444 1443 1445 1444 1440 1436 1435 1434 1432 1430 1428 1427 1426 1425 1424 1423 1422 1420 1419 1418 1417 1417 1416 1417 1419 1420 1423 1426 1429 1433 1438 1442 1446 1450 1454 1458 1462 1466 1469 1472 1476 1480 1483 1486
1444 1443 1443 1442 1438 1435 1433 1432 1430 1429 1427 1426 1426 1425 1424 1423 1422 1421 1420 1419 1419 1418 1418 1419 1420 1422 1424 1426 1429 1433 1437 1441 1444 1448 1451 1455 1458 1462 1465 1469 1472 1475 1478 1481
1442 1442 1442 1441 1437 1437 1436 1433 1431 1429 1428 1427 1426 1425 1425 1425 1424 1423 1422 1422 1421 1421 1422 1422 1423 1424 1426 1428 1430 1434 1437 1440 1443 1446 1450 1453 1457 1460 1464 1466 1470 1472 1475 1478